Torna al catalogo

QIANFAN-205

AttivoComunicazioniPO
NORAD 69804·PAYLOAD·🇨🇳 China

Lanciato Jul 4, 2026 da Taiyuan Satellite Launch Center

Loading…

Prossimi Passaggi (prossime 24 ore)

TLE

AggiornatoSource: Space-Track

Epoca: Sep 14, 2026, 12:26 UTC

1 69804U 26153E   26257.51864265 -.01823741  00000-0 -13077+1 0  9999
2 69804  88.9974 352.1396 0008166 348.8816  11.2182 14.01404206 10202

Traccia QIANFAN-205 in tempo reale con AllMySat

Download on the App Store